FW2156 Weather Reports


time (UTC)temp
C
wind
direction
speed
KPH
gust
KPH
rain 1hr
cm
rain 24hr
cm
rain mn
cm
humidity
%
barometer
mb
20260902185115 18 227 0.0 0.0 0.00 0.00 0.00 66 1004.7
20260902184614 18 168 0.0 0.0 0.00 0.00 0.00 66 1004.7
20260902184112 18 36 1.6 1.6 0.00 0.00 0.00 65 1004.7
20260902183612 18 134 0.0 0.0 0.00 0.00 0.00 67 1004.7
20260902183119 18 46 0.0 1.6 0.00 0.00 0.00 65 1004.7
20260902182613 18 63 0.0 1.6 0.00 0.00 0.00 65 1004.7
20260902182115 18 142 0.0 0.0 0.00 0.00 0.00 66 1004.7
20260902181615 17 188 0.0 0.0 0.00 0.00 0.00 65 1004.7
20260902181113 17 53 1.6 1.6 0.00 0.00 0.00 66 1004.7
20260902180611 17 198 0.0 0.0 0.00 0.00 0.00 66 1004.7
20260902180045 17 233 1.6 1.6 0.00 0.00 0.00 66 1004.7
20260902175539 17 237 1.6 3.2 0.00 0.00 0.00 68 1004.7
20260902175038 17 219 0.0 1.6 0.00 0.00 0.00 69 1004.7
20260902174535 17 263 1.6 1.6 0.00 0.00 0.00 69 1004.7
20260902174036 17 256 0.0 1.6 0.00 0.00 0.00 69 1004.7
20260902173540 17 284 1.6 3.2 0.00 0.00 0.00 69 1004.7
20260902173037 17 229 0.0 0.0 0.00 0.00 0.00 67 1004.7
20260902172536 17 212 0.0 0.0 0.00 0.00 0.00 66 1004.7
20260902172024 17 184 0.0 0.0 0.00 0.00 0.00 68 1004.7
20260902171525 17 103 0.0 1.6 0.00 0.00 0.00 69 1004.7
20260902171023 17 316 0.0 1.6 0.00 0.00 0.00 69 1004.7
20260902170526 17 241 1.6 1.6 0.00 0.00 0.00 70 1004.7
20260902170026 17 258 1.6 1.6 0.00 0.00 0.00 69 1004.7
20260902165525 17 256 1.6 1.6 0.00 0.00 0.00 67 1004.7
20260902165024 17 236 1.6 1.6 0.00 0.00 0.00 66 1004.7
20260902164523 17 125 0.0 1.6 0.00 0.00 0.00 66 1004.7
20260902164024 17 217 0.0 0.0 0.00 0.00 0.00 67 1004.7
20260902163524 17 222 0.0 0.0 0.00 0.00 0.00 66 1004.7
20260902163023 17 208 0.0 0.0 0.00 0.00 0.00 68 1004.7
20260902162524 17 125 3.2 3.2 0.00 0.00 0.00 69 1004.7
20260902162023 17 101 3.2 4.8 0.00 0.00 0.00 69 1004.4
20260902161526 17 76 0.0 1.6 0.00 0.00 0.00 61 1004.1
20260902161026 17 164 0.0 0.0 0.00 0.00 0.00 62 1004.1
20260902160523 17 314 0.0 0.0 0.00 0.00 0.00 64 1004.1
20260902160025 17 298 1.6 1.6 0.00 0.00 0.00 64 1004.1
20260902155525 17 286 0.0 1.6 0.00 0.00 0.00 65 1004.1
20260902155027 17 232 1.6 3.2 0.00 0.00 0.00 66 1004.1
20260902154519 16 247 0.0 0.0 0.00 0.00 0.00 64 1004.1
20260902154019 16 250 1.6 1.6 0.00 0.00 0.00 66 1004.1
20260902153519 16 235 1.6 3.2 0.00 0.00 0.00 65 1004.1
20260902153019 16 222 0.0 0.0 0.00 0.00 0.00 66 1004.1
20260902152524 16 259 3.2 3.2 0.00 0.00 0.00 66 1004.1
20260902152020 16 329 0.0 1.6 0.00 0.00 0.00 67 1004.1
20260902151528 16 277 1.6 3.2 0.00 0.00 0.00 67 1004.4
20260902151020 15 276 1.6 3.2 0.00 0.00 0.00 68 1004.4
20260902150521 15 278 1.6 1.6 0.00 0.00 0.00 70 1004.1
20260902150022 15 265 1.6 1.6 0.00 0.00 0.00 71 1004.4
20260902145516 15 289 3.2 3.2 0.00 0.00 0.00 70 1004.4
20260902144944 15 232 0.0 0.0 0.00 0.00 0.00 71 1004.4
20260902144442 15 281 3.2 3.2 0.00 0.00 0.00 72 1004.7
20260902143944 14 257 1.6 1.6 0.00 0.00 0.00 73 1004.4
20260902143444 14 255 1.6 1.6 0.00 0.00 0.00 74 1004.4
20260902142943 14 253 1.6 1.6 0.00 0.00 0.00 74 1004.4
20260902142440 13 223 0.0 1.6 0.00 0.00 0.00 76 1004.1
20260902141942 13 223 0.0 0.0 0.00 0.00 0.00 78 1004.1
20260902141419 13 223 0.0 0.0 0.00 0.00 0.00 79 1004.1
20260902140915 13 234 0.0 0.0 0.00 0.00 0.00 80 1004.4
20260902140418 13 212 0.0 0.0 0.00 0.00 0.00 80 1004.4
20260902135914 13 224 0.0 0.0 0.00 0.00 0.00 81 1004.4
20260902135415 13 242 0.0 0.0 0.00 0.00 0.00 81 1004.4
20260902134912 13 239 0.0 1.6 0.00 0.00 0.00 81 1004.4
20260902134416 13 203 0.0 0.0 0.00 0.00 0.00 80 1004.1
20260902133914 13 176 0.0 0.0 0.00 0.00 0.00 80 1004.1
20260902133411 13 186 0.0 0.0 0.00 0.00 0.00 79 1004.1
20260902132914 13 193 0.0 0.0 0.00 0.00 0.00 78 1004.4
20260902132412 13 171 0.0 0.0 0.00 0.00 0.00 78 1004.1
20260902131912 13 162 1.6 1.6 0.00 0.00 0.00 77 1004.1
20260902131413 13 192 0.0 0.0 0.00 0.00 0.00 78 1004.1
20260902130913 13 216 0.0 0.0 0.00 0.00 0.00 78 1004.1
20260902130412 13 236 0.0 1.6 0.00 0.00 0.00 78 1004.1
20260902125910 13 223 0.0 1.6 0.00 0.00 0.00 79 1004.1
20260902125413 13 244 1.6 1.6 0.00 0.00 0.00 78 1004.1
20260902124911 13 242 0.0 1.6 0.00 0.00 0.00 78 1003.7
20260902124414 13 248 0.0 1.6 0.00 0.00 0.00 78 1003.7
20260902123858 13 248 0.0 1.6 0.00 0.00 0.00 78 1003.7
20260902123352 13 223 0.0 1.6 0.00 0.00 0.00 80 1003.7
20260902122850 13 197 0.0 0.0 0.00 0.00 0.00 81 1003.7
20260902122337 13 200 0.0 0.0 0.00 0.00 0.00 81 1003.7
20260902121844 13 192 0.0 0.0 0.00 0.00 0.00 81 1003.7
20260902121336 13 186 0.0 0.0 0.00 0.00 0.00 82 1003.7
20260902120841 12 220 0.0 0.0 0.00 0.00 0.00 83 1004.1
20260902120252 12 67 1.6 3.2 0.00 0.00 0.00 82 1004.1
20260902115720 12 221 0.0 0.0 0.00 0.00 0.00 81 1004.1
20260902115149 12 227 0.0 1.6 0.00 0.00 0.00 82 1004.1
20260902114625 12 233 0.0 1.6 0.00 0.00 0.00 82 1004.1
20260902114103 12 224 0.0 1.6 0.00 0.00 0.00 83 1004.1
20260902113539 12 221 0.0 0.0 0.00 0.00 0.00 83 1004.1
20260902113036 12 222 0.0 0.0 0.00 0.00 0.00 83 1004.1
20260902112540 12 235 0.0 1.6 0.00 0.00 0.00 83 1004.1
20260902112047 12 251 0.0 1.6 0.00 0.00 0.00 83 1004.1
20260902111535 12 235 0.0 0.0 0.00 0.00 0.00 83 1004.1
20260902111023 12 217 0.0 0.0 0.00 0.00 0.00 82 1004.1
20260902110512 12 265 0.0 1.6 0.00 0.00 0.00 82 1004.1
20260902110008 12 234 0.0 0.0 0.00 0.00 0.00 82 1004.1
20260902105452 12 244 0.0 1.6 0.00 0.00 0.00 81 1004.1
20260902104939 12 239 1.6 1.6 0.00 0.00 0.00 81 1004.4
20260902104430 12 233 0.0 1.6 0.00 0.00 0.00 81 1004.1
20260902103922 12 254 0.0 1.6 0.00 0.00 0.00 81 1004.4
20260902103415 12 228 0.0 0.0 0.00 0.00 0.00 81 1004.1
20260902102913 12 211 0.0 0.0 0.00 0.00 0.00 82 1004.4
20260902102414 12 218 0.0 0.0 0.00 0.00 0.00 82 1004.4
20260902101942 13 215 0.0 0.0 0.00 0.00 0.00 81 1004.1
20260902101437 13 213 0.0 0.0 0.00 0.00 0.00 81 1004.4
20260902100914 13 216 0.0 0.0 0.00 0.00 0.00 81 1004.4
20260902100404 13 222 0.0 1.6 0.00 0.00 0.00 80 1004.4
20260902095903 13 231 0.0 0.0 0.00 0.00 0.00 80 1004.4
20260902095401 13 224 1.6 1.6 0.00 0.00 0.00 79 1004.4
20260902094903 13 214 0.0 0.0 0.00 0.00 0.00 78 1004.4
20260902094402 13 218 0.0 0.0 0.00 0.00 0.00 77 1004.4
20260902093900 13 231 0.0 0.0 0.00 0.00 0.00 77 1004.4
20260902093359 13 223 0.0 0.0 0.00 0.00 0.00 77 1004.7
20260902092900 13 167 0.0 0.0 0.00 0.00 0.00 78 1004.7
20260902092402 13 196 0.0 0.0 0.00 0.00 0.00 79 1004.7
20260902091901 13 188 0.0 0.0 0.00 0.00 0.00 77 1004.7
20260902091401 14 131 0.0 1.6 0.00 0.00 0.00 76 1004.7
20260902090901 14 180 0.0 0.0 0.00 0.00 0.00 76 1004.4
20260902090338 14 223 0.0 0.0 0.00 0.00 0.00 75 1004.4
20260902085859 14 225 0.0 0.0 0.00 0.00 0.00 74 1004.4
20260902085359 14 238 0.0 0.0 0.00 0.00 0.00 74 1004.7
20260902084900 14 247 0.0 0.0 0.00 0.00 0.00 73 1004.4
20260902084357 14 279 1.6 3.2 0.00 0.00 0.00 72 1004.4
20260902083859 14 264 1.6 1.6 0.00 0.00 0.00 72 1004.7
20260902083357 14 235 1.6 1.6 0.00 0.00 0.00 72 1004.7
20260902082857 14 275 1.6 1.6 0.00 0.00 0.00 73 1004.7
20260902082358 14 224 0.0 1.6 0.00 0.00 0.00 74 1004.7
20260902081857 14 233 0.0 0.0 0.00 0.00 0.00 75 1005.1
20260902081356 15 233 0.0 0.0 0.00 0.00 0.00 76 1004.7
20260902080855 15 274 1.6 1.6 0.00 0.00 0.00 75 1004.7
20260902080359 15 229 1.6 1.6 0.00 0.00 0.00 73 1004.7
20260902075854 15 211 0.0 0.0 0.00 0.00 0.00 73 1004.7
20260902075353 15 196 0.0 0.0 0.00 0.00 0.00 74 1004.7
20260902074855 15 188 0.0 0.0 0.00 0.00 0.00 72 1004.7
20260902074353 15 180 0.0 0.0 0.00 0.00 0.00 71 1004.7
20260902073853 15 178 0.0 0.0 0.00 0.00 0.00 71 1004.7
20260902073356 15 183 0.0 0.0 0.00 0.00 0.00 71 1005.1
20260902072852 15 183 0.0 0.0 0.00 0.00 0.00 72 1004.7
20260902072352 15 198 0.0 0.0 0.00 0.00 0.00 72 1005.1
20260902071853 15 191 0.0 0.0 0.00 0.00 0.00 72 1005.1
20260902071351 15 193 0.0 0.0 0.00 0.00 0.00 71 1005.4
20260902070853 15 177 0.0 0.0 0.00 0.00 0.00 70 1005.4
20260902070356 15 176 0.0 0.0 0.00 0.00 0.00 71 1005.4
20260902065852 15 178 0.0 0.0 0.00 0.00 0.00 70 1005.4
20260902065351 15 175 0.0 0.0 0.00 0.00 0.00 70 1005.4
20260902064852 15 175 0.0 0.0 0.00 0.00 0.00 70 1005.1
20260902064350 16 176 0.0 0.0 0.00 0.00 0.00 70 1005.4
20260902063852 16 175 0.0 0.0 0.00 0.00 0.00 70 1005.4
20260902063349 16 179 0.0 0.0 0.00 0.00 0.00 70 1005.4
20260902062850 16 178 0.0 0.0 0.00 0.00 0.00 69 1005.1
20260902062350 16 175 0.0 0.0 0.00 0.00 0.00 69 1005.4
20260902061848 16 174 0.0 0.0 0.00 0.00 0.00 68 1005.4
20260902061348 16 185 0.0 0.0 0.00 0.00 0.00 68 1005.4
20260902060751 16 172 0.0 0.0 0.00 0.00 0.00 66 1005.4
20260902060248 16 139 0.0 0.0 0.00 0.00 0.00 66 1005.4
20260902055746 16 173 0.0 0.0 0.00 0.00 0.00 66 1005.4
20260902055248 16 173 0.0 0.0 0.00 0.00 0.00 66 1005.4
20260902054748 15 180 0.0 0.0 0.00 0.00 0.00 68 1005.4
20260902054245 15 180 0.0 0.0 0.00 0.00 0.00 68 1005.4
20260902053748 16 177 0.0 0.0 0.00 0.00 0.00 70 1005.8
20260902053249 16 184 0.0 0.0 0.00 0.00 0.00 71 1005.8
20260902052747 16 182 0.0 0.0 0.00 0.00 0.00 70 1005.8
20260902052248 16 176 0.0 0.0 0.00 0.00 0.00 68 1005.8
20260902051747 16 177 0.0 0.0 0.00 0.00 0.00 68 1005.8
20260902051248 16 199 0.0 0.0 0.00 0.00 0.00 69 1005.8
20260902050748 16 196 0.0 0.0 0.00 0.00 0.00 68 1005.8
20260902050245 16 201 0.0 0.0 0.00 0.00 0.00 68 1005.8
20260902045746 16 198 0.0 0.0 0.00 0.00 0.00 69 1005.8
20260902045245 17 193 0.0 0.0 0.00 0.00 0.00 69 1005.8
20260902044745 17 197 0.0 0.0 0.00 0.00 0.00 69 1005.8
20260902044243 17 196 0.0 0.0 0.00 0.00 0.00 68 1005.8
20260902043742 17 191 0.0 0.0 0.00 0.00 0.00 67 1005.8
20260902043242 18 148 0.0 0.0 0.00 0.00 0.00 67 1006.1
20260902042742 18 148 0.0 0.0 0.00 0.00 0.00 67 1005.8
20260902042142 18 148 0.0 0.0 0.00 0.00 0.00 66 1006.1
20260902041643 18 148 0.0 0.0 0.00 0.00 0.00 65 1005.8
20260902041140 19 148 0.0 0.0 0.00 0.00 0.00 64 1005.8
20260902040641 19 146 0.0 0.0 0.00 0.00 0.00 63 1005.8
20260902040140 19 146 0.0 0.0 0.00 0.00 0.00 62 1005.8
20260902035640 20 146 0.0 0.0 0.00 0.00 0.00 61 1006.1
20260902035140 20 146 0.0 0.0 0.00 0.00 0.00 61 1005.8
20260902034639 20 146 0.0 0.0 0.00 0.00 0.00 60 1006.1
20260902034139 20 146 0.0 0.0 0.00 0.00 0.00 60 1006.1
20260902033638 20 142 0.0 0.0 0.00 0.00 0.00 60 1006.1
20260902033139 20 142 0.0 0.0 0.00 0.00 0.00 59 1005.8
20260902032639 20 142 0.0 0.0 0.00 0.00 0.00 58 1006.1
20260902032138 20 141 0.0 0.0 0.00 0.00 0.00 57 1005.8
20260902031636 20 141 0.0 0.0 0.00 0.00 0.00 57 1006.1
20260902031138 21 141 0.0 0.0 0.00 0.00 0.00 56 1005.8
20260902030637 21 138 0.0 0.0 0.00 0.00 0.00 56 1006.1
20260902030138 21 138 0.0 0.0 0.00 0.00 0.00 55 1006.1
20260902025637 21 146 0.0 0.0 0.00 0.00 0.00 55 1006.1
20260902025136 21 99 0.0 0.0 0.00 0.00 0.00 54 1005.8
20260902024635 21 18 1.6 1.6 0.00 0.00 0.00 53 1005.8
20260902024137 21 152 0.0 0.0 0.00 0.00 0.00 53 1005.8
20260902023634 22 142 0.0 0.0 0.00 0.00 0.00 53 1006.1
20260902023136 22 143 0.0 0.0 0.00 0.00 0.00 52 1005.8
20260902022635 22 142 0.0 0.0 0.00 0.00 0.00 52 1005.8
20260902022135 22 145 0.0 0.0 0.00 0.00 0.00 51 1006.1
20260902021634 22 170 0.0 0.0 0.00 0.00 0.00 51 1005.8
20260902021135 23 153 0.0 0.0 0.00 0.00 0.00 50 1005.8
20260902020634 23 161 0.0 0.0 0.00 0.00 0.00 49 1006.1
20260902020135 23 177 0.0 0.0 0.00 0.00 0.00 48 1006.1
20260902015632 23 165 0.0 0.0 0.00 0.00 0.00 48 1006.1
20260902015133 23 148 0.0 0.0 0.00 0.00 0.00 47 1005.8
20260902014633 23 132 1.6 3.2 0.00 0.00 0.00 46 1006.1
20260902014133 24 154 0.0 0.0 0.00 0.00 0.00 47 1006.1
20260902013631 24 145 0.0 0.0 0.00 0.00 0.00 46 1005.8
20260902013131 24 137 0.0 1.6 0.00 0.00 0.00 46 1005.8
20260902012631 24 139 0.0 1.6 0.00 0.00 0.00 45 1006.1
20260902012131 24 106 0.0 1.6 0.00 0.00 0.00 45 1006.1
20260902011632 24 147 0.0 0.0 0.00 0.00 0.00 45 1005.8
20260902011129 24 122 1.6 1.6 0.00 0.00 0.00 45 1005.8
20260902010632 25 133 0.0 0.0 0.00 0.00 0.00 45 1006.1
20260902010130 25 84 0.0 0.0 0.00 0.00 0.00 44 1006.1
20260902005628 25 114 1.6 1.6 0.00 0.00 0.00 45 1006.1
20260902005129 25 70 4.8 4.8 0.00 0.00 0.00 45 1005.8
20260902004629 25 168 1.6 1.6 0.00 0.00 0.00 45 1006.1
20260902004129 25 233 0.0 1.6 0.00 0.00 0.00 44 1005.8
20260902003627 25 88 1.6 3.2 0.00 0.00 0.00 43 1006.1
20260902003129 25 36 1.6 3.2 0.00 0.00 0.00 43 1006.1
20260902002627 25 117 1.6 1.6 0.00 0.00 0.00 43 1006.1
20260902002127 25 79 1.6 3.2 0.00 0.00 0.00 43 1006.1
20260902001628 25 175 0.0 1.6 0.00 0.00 0.00 42 1006.1
20260902001126 26 107 3.2 3.2 0.00 0.00 0.00 42 1006.1
20260902000627 26 228 4.8 9.7 0.00 0.00 0.00 43 1006.1
20260902000151 26 59 3.2 4.8 0.00 0.00 0.00 42 1006.1
20260901235634 26 212 0.0 0.0 0.00 0.00 0.00 42 1006.1
20260901235158 26 197 1.6 1.6 0.00 0.00 0.00 42 1006.1
20260901234625 26 138 1.6 3.2 0.00 0.00 0.00 43 1006.4
20260901234124 26 95 1.6 3.2 0.00 0.00 0.00 43 1006.4
20260901233631 26 215 1.6 1.6 0.00 0.00 0.00 42 1006.1
20260901233129 25 161 1.6 3.2 0.00 0.00 0.00 43 1006.1
20260901232626 25 69 1.6 1.6 0.00 0.00 0.00 42 1006.1
20260901232123 25 223 0.0 0.0 0.00 0.00 0.00 43 1006.1
20260901231628 25 26 0.0 1.6 0.00 0.00 0.00 42 1006.4
20260901231132 25 239 0.0 0.0 0.00 0.00 0.00 43 1006.4
20260901230628 25 104 0.0 1.6 0.00 0.00 0.00 43 1006.1
20260901230122 25 95 0.0 1.6 0.00 0.00 0.00 43 1006.4
20260901225628 25 153 3.2 4.8 0.00 0.00 0.00 43 1006.4
20260901225128 25 156 1.6 1.6 0.00 0.00 0.00 43 1006.4
20260901224618 25 217 0.0 0.0 0.00 0.00 0.00 43 1006.4
20260901224121 26 129 1.6 1.6 0.00 0.00 0.00 41 1006.4
20260901223621 25 217 0.0 0.0 0.00 0.00 0.00 41 1006.4
20260901223132 25 70 1.6 1.6 0.00 0.00 0.00 40 1006.4
20260901222617 25 342 1.6 3.2 0.00 0.00 0.00 40 1006.8
20260901222117 25 152 0.0 1.6 0.00 0.00 0.00 40 1006.4
20260901221617 25 158 1.6 1.6 0.00 0.00 0.00 41 1006.4
20260901221116 25 270 1.6 1.6 0.00 0.00 0.00 41 1006.8
20260901220616 25 143 1.6 3.2 0.00 0.00 0.00 42 1006.8
20260901220117 25 156 1.6 3.2 0.00 0.00 0.00 42 1006.8
20260901215617 25 104 3.2 3.2 0.00 0.00 0.00 42 1006.8
20260901215117 25 150 1.6 3.2 0.00 0.00 0.00 42 1006.8
20260901214615 25 195 3.2 4.8 0.00 0.00 0.00 42 1006.8
20260901214116 25 309 1.6 3.2 0.00 0.00 0.00 43 1006.8
20260901213614 25 200 1.6 3.2 0.00 0.00 0.00 44 1007.1
20260901213114 26 324 0.0 1.6 0.00 0.00 0.00 44 1007.1
20260901212615 26 219 1.6 1.6 0.00 0.00 0.00 43 1007.1
20260901212115 26 122 1.6 3.2 0.00 0.00 0.00 45 1007.1
20260901211613 26 158 3.2 4.8 0.00 0.00 0.00 45 1007.1
20260901211114 25 281 0.0 1.6 0.00 0.00 0.00 44 1007.1
20260901210613 25 95 1.6 3.2 0.00 0.00 0.00 45 1007.1
20260901210113 25 209 0.0 1.6 0.00 0.00 0.00 44 1007.1
20260901205612 25 278 0.0 1.6 0.00 0.00 0.00 43 1007.5
20260901205112 25 70 3.2 4.8 0.00 0.00 0.00 44 1007.5
20260901204612 25 110 3.2 3.2 0.00 0.00 0.00 45 1007.5
20260901204112 25 25 1.6 3.2 0.00 0.00 0.00 47 1007.5
20260901203613 25 117 3.2 3.2 0.00 0.00 0.00 45 1007.5
20260901203115 25 106 1.6 1.6 0.00 0.00 0.00 46 1007.5
20260901202612 25 207 0.0 0.0 0.00 0.00 0.00 45 1007.5
20260901202114 25 0 0.0 0.0 0.00 0.00 0.00 45 1007.8
20260901201610 25 118 3.2 3.2 0.00 0.00 0.00 45 1007.8
20260901201111 24 260 1.6 1.6 0.00 0.00 0.00 45 1007.5
20260901200613 24 223 0.0 1.6 0.00 0.00 0.00 46 1007.8
20260901200120 23 218 1.6 1.6 0.00 0.00 0.00 45 1007.8
20260901195622 23 212 4.8 8.0 0.00 0.00 0.00 46 1007.8
20260901195109 23 187 0.0 0.0 0.00 0.00 0.00 48 1007.8
20260901194613 23 152 0.0 1.6 0.00 0.00 0.00 48 1007.8
20260901194112 23 129 0.0 1.6 0.00 0.00 0.00 49 1007.8
20260901193611 22 152 1.6 1.6 0.00 0.00 0.00 49 1007.8
20260901193109 22 174 1.6 1.6 0.00 0.00 0.00 49 1007.8
20260901192612 22 180 0.0 1.6 0.00 0.00 0.00 50 1007.8
20260901192112 22 122 3.2 3.2 0.00 0.00 0.00 52 1008.1
20260901191612 22 128 1.6 3.2 0.00 0.00 0.00 52 1008.1
20260901191112 22 165 1.6 3.2 0.00 0.00 0.00 51 1008.1
20260901190615 22 84 3.2 4.8 0.00 0.00 0.00 51 1008.1
20260901190112 22 111 4.8 4.8 0.00 0.00 0.00 52 1008.1
20260901185609 22 97 4.8 4.8 0.00 0.00 0.00 53 1008.5